Retour au catalogue

YZ-1 R/B

ActifMEO
NORAD 43248·ROCKET BODY·🇨🇳 China

Lancé Mar 29, 2018 depuis Xichang Satellite Launch Center

Loading…

Prochains Passages (prochaines 24 heures)

TLE

FraisSource: Space-Track

Époque: Sep 13, 2026, 10:27 UTC

1 43248U 18029D   26256.43545953 -.00000062  00000-0  00000-0 0  9999
2 43248  54.5866 307.8881 0101146  44.1367 316.7355  1.77724232 54914

Suivez YZ-1 R/B en temps réel avec AllMySat

Download on the App Store